Temperature
9 8 8 8 8 7 7 7 7 7 6 6 6 5 5 5 4 4 3 3 3 2 2 2 1 1 0 -1 -1 -2 -3 -4 -5 -5 -5 -4 -4 -4 -4 -4 -4 -4 -3
8 8 7 7 7 7 7 6 6 6 6 5 5 5 4 4 4 3 3 3 2 2 2 1 1 1 0 -1 -1 -2 -3 -4 -5 -5 -5 -5 -5 -5 -5 -4 -4 -4 -4
7 7 7 6 6 6 6 6 5 5 5 4 4 4 4 4 3 3 2 2 1 1 1 1 0 0 -0 -1 -1 -2 -3 -4 -5 -6 -6 -6 -6 -6 -6 -5 -5 -5 -4
6 6 6 6 5 5 5 5 4 4 4 3 3 3 3 2 2 2 2 1 1 0 0 -0 -0 -1 -1 -1 -2 -2 -3 -4 -5 -6 -7 -7 -7 -6 -6 -6 -5 -5 -5
6 5 5 5 5 5 4 4 4 3 3 2 2 2 2 1 1 1 1 0 -0 -0 -0 -1 -1 -1 -2 -2 -3 -4 -4 -5 -6 -7 -7 -8 -7 -7 -7 -6 -6 -6 -5
5 5 5 4 4 4 3 3 3 2 2 1 1 1 1 1 0 -0 -1 -1 -2 -2 -2 -2 -2 -2 -3 -4 -5 -5 -6 -6 -6 -7 -7 -8 -7 -7 -7 -7 -7 -7 -7
4 4 4 3 3 3 2 2 1 1 1 0 0 0 -0 -0 -0 -1 -1 -2 -2 -2 -2 -2 -3 -3 -3 -4 -4 -5 -5 -5 -6 -6 -7 -7 -7 -6 -7 -7 -7 -7 -7
3 3 2 2 2 1 1 1 0 -0 -0 -1 -1 -1 -1 -1 -1 -1 -2 -2 -2 -2 -3 -3 -3 -3 -4 -4 -5 -5 -5 -5 -6 -6 -6 -6 -6 -6 -6 -7 -7 -7 -7
2 2 1 1 0 0 -0 -0 -1 -1 -1 -1 -2 -1 -1 -1 -1 -2 -2 -3 -3 -3 -3 -3 -4 -4 -4 -5 -6 -6 -6 -6 -6 -7 -6 -6 -6 -6 -6 -7 -7 -7 -8
1 0 0 -0 -1 -1 -1 -1 -1 -2 -2 -2 -2 -2 -2 -2 -2 -2 -3 -3 -3 -3 -3 -4 -5 -5 -5 -6 -6 -6 -7 -6 -7 -7 -7 -7 -6 -6 -6 -6 -6 -7 -7
0 -0 -0 -1 -1 -2 -2 -2 -2 -2 -2 -2 -2 -2 -2 -2 -2 -3 -3 -4 -4 -4 -4 -4 -5 -5 -6 -6 -6 -6 -6 -7 -7 -7 -7 -7 -7 -6 -6 -6 -7 -7 -7
-0 -1 -1 -1 -2 -2 -2 -2 -3 -3 -3 -3 -3 -3 -3 -3 -3 -3 -3 -4 -4 -4 -5 -5 -5 -5 -6 -6 -6 -6 -6 -6 -7 -7 -7 -7 -6 -6 -6 -6 -7 -7 -7
-1 -2 -2 -2 -2 -3 -3 -3 -3 -3 -4 -4 -4 -4 -4 -3 -3 -3 -4 -4 -4 -5 -5 -5 -6 -6 -6 -6 -6 -6 -6 -6 -6 -6 -7 -6 -6 -6 -6 -7 -7 -7 -8
-2 -2 -3 -3 -3 -3 -4 -4 -4 -5 -5 -5 -5 -4 -4 -4 -4 -3 -4 -4 -4 -5 -5 -5 -6 -6 -6 -6 -6 -6 -6 -6 -6 -6 -6 -6 -6 -6 -7 -7 -7 -8 -8
-3 -3 -3 -4 -4 -4 -4 -5 -5 -5 -5 -5 -4 -4 -4 -4 -4 -4 -4 -4 -4 -5 -5 -6 -6 -6 -6 -6 -6 -6 -6 -6 -6 -6 -6 -6 -7 -7 -7 -7 -8 -8 -9
-4 -4 -4 -4 -5 -5 -6 -6 -5 -5 -5 -5 -4 -4 -4 -4 -4 -4 -4 -4 -4 -5 -5 -5 -6 -6 -6 -6 -6 -6 -6 -6 -6 -6 -6 -7 -7 -7 -7 -8 -8 -9 -9
-4 -5 -5 -5 -6 -6 -6 -6 -6 -6 -5 -5 -4 -4 -4 -4 -4 -4 -4 -4 -5 -5 -5 -5 -6 -6 -6 -6 -6 -6 -6 -6 -6 -6 -7 -7 -7 -8 -8 -8 -9 -9 -10
-5 -5 -5 -6 -6 -6 -6 -6 -6 -6 -6 -5 -4 -4 -4 -4 -4 -4 -4 -5 -5 -5 -6 -6 -6 -6 -6 -6 -6 -6 -6 -6 -6 -7 -7 -7 -8 -8 -9 -9 -9 -10 -10
-5 -6 -6 -6 -6 -7 -6 -6 -6 -6 -6 -5 -5 -4 -4 -4 -4 -4 -5 -5 -5 -6 -6 -6 -6 -6 -6 -6 -6 -6 -6 -6 -7 -7 -7 -8 -8 -9 -9 -9 -10 -10 -10
-6 -6 -6 -7 -7 -6 -6 -6 -6 -6 -6 -6 -5 -5 -5 -5 -4 -4 -5 -5 -6 -6 -6 -6 -6 -6 -6 -6 -6 -7 -7 -7 -7 -7 -8 -8 -8 -9 -9 -10 -10 -10 -10
-6 -6 -7 -7 -7 -7 -6 -6 -6 -6 -6 -6 -5 -5 -5 -5 -5 -5 -5 -5 -6 -6 -6 -6 -6 -6 -7 -7 -7 -7 -7 -7 -7 -7 -8 -8 -9 -9 -9 -10 -10 -10 -11
-6 -7 -7 -7 -7 -7 -6 -6 -6 -6 -6 -5 -5 -5 -5 -5 -5 -5 -5 -6 -6 -6 -6 -6 -7 -7 -7 -7 -7 -7 -7 -7 -7 -8 -8 -8 -9 -9 -10 -10 -10 -10 -11
-7 -7 -7 -7 -7 -7 -6 -6 -6 -6 -5 -5 -5 -5 -5 -5 -5 -6 -6 -6 -6 -6 -6 -6 -7 -7 -7 -7 -7 -7 -7 -7 -7 -8 -8 -9 -9 -9 -10 -10 -10 -11 -11
-7 -7 -7 -7 -7 -7 -6 -6 -6 -6 -6 -5 -6 -6 -6 -6 -6 -6 -6 -6 -6 -6 -7 -7 -7 -7 -7 -7 -7 -7 -7 -7 -8 -8 -8 -9 -9 -10 -10 -10 -10 -11 -11
-7 -7 -7 -7 -7 -7 -7 -6 -6 -6 -6 -6 -6 -6 -6 -6 -6 -6 -6 -6 -7 -7 -7 -7 -7 -7 -7 -7 -7 -7 -7 -8 -8 -8 -9 -9 -9 -10 -10 -10 -11 -11 -11
-8 -8 -7 -7 -7 -7 -7 -6 -6 -6 -6 -6 -6 -7 -7 -7 -7 -7 -7 -7 -7 -7 -7 -7 -7 -7 -7 -7 -7 -7 -8 -8 -8 -9 -9 -9 -10 -10 -10 -11 -11 -11 -11
Wind_Speed
6 6 7 8 8 7 8 9 10 10 10 10 11 11 12 14 14 14 16 15 18 18 16 17 20 16 14 12 12 13 14 14 20 10 7 8 9 10 10 13 15 16 18
6 7 7 8 8 8 9 10 10 10 10 10 10 11 12 13 13 14 16 16 17 18 18 18 19 15 17 15 14 15 15 15 17 17 8 9 11 10 9 10 11 16 16
7 7 8 8 9 9 10 10 10 10 10 10 10 11 12 12 13 14 15 16 16 17 17 18 18 17 18 16 16 16 14 15 14 14 11 8 9 8 9 10 12 9 15
7 8 9 10 10 10 10 10 10 10 10 11 11 12 12 12 13 13 14 15 15 16 16 17 17 17 19 18 16 16 14 14 13 13 12 9 10 8 7 10 11 10 11
8 9 10 10 10 10 10 10 10 10 11 11 12 12 12 11 11 12 12 14 15 15 15 15 16 20 24 19 15 12 12 13 12 13 14 12 12 9 10 9 12 9 9
9 10 11 11 11 11 11 11 11 11 11 11 12 13 13 12 19 24 19 12 13 14 15 14 15 20 25 30 31 27 22 17 15 15 14 14 12 12 11 11 10 9 8
10 11 11 11 12 12 12 11 12 12 11 12 12 13 14 16 24 25 25 16 11 12 13 12 12 13 20 14 21 29 27 31 28 18 17 16 14 13 12 13 12 12 12
11 11 12 11 12 12 12 13 13 11 11 12 12 13 13 16 24 25 25 16 10 10 11 12 13 12 13 14 12 13 14 15 18 17 16 15 14 11 12 13 12 13 11
12 12 12 12 13 13 13 14 13 12 12 12 12 13 14 16 22 24 23 10 9 10 10 10 12 11 19 23 15 13 13 13 22 27 24 20 24 25 19 12 12 11 12
13 12 12 12 13 15 15 14 13 12 13 12 12 12 13 13 20 23 22 8 8 8 7 9 16 16 19 22 14 13 14 12 11 12 16 18 16 17 23 15 10 10 9
13 13 13 12 13 14 14 12 13 13 13 13 13 12 12 14 18 21 20 9 7 8 7 7 9 18 21 22 20 13 17 13 9 11 10 10 10 9 9 9 8 8 10
13 14 14 13 12 12 13 14 12 13 13 13 13 13 10 10 14 16 20 18 16 8 8 6 9 17 20 21 17 18 22 19 10 10 10 10 10 9 9 8 9 9 10
15 14 14 14 12 11 13 14 13 11 11 12 11 12 11 9 10 19 20 20 19 10 7 12 14 17 18 15 19 21 18 12 10 10 10 10 9 7 6 5 6 7 8
16 15 13 14 13 11 10 11 12 12 12 12 12 12 11 10 8 8 8 10 12 11 8 11 15 16 13 13 13 11 8 7 8 8 8 6 5 5 6 5 5 5 6
15 14 13 12 13 13 11 11 13 11 14 15 12 12 13 13 13 19 14 7 6 8 7 5 4 4 5 6 7 7 5 5 6 5 6 5 5 5 5 5 5 5 6
15 14 12 11 11 11 13 14 18 19 24 25 23 21 15 19 24 24 22 20 19 16 10 6 6 6 7 7 7 6 6 6 5 5 5 5 5 5 5 4 4 5 8
15 15 12 11 12 12 13 14 15 17 20 22 23 23 21 23 24 23 21 18 16 15 9 6 6 6 6 6 6 6 6 6 5 5 5 5 5 5 5 5 5 6 8
14 16 16 12 12 12 13 13 14 15 15 13 15 20 22 22 22 21 19 14 8 7 5 5 5 6 6 6 6 6 6 5 5 5 5 5 5 5 5 6 6 8 9
13 11 11 12 12 12 13 13 13 14 14 14 12 14 18 18 18 17 15 6 6 6 5 5 5 5 5 6 6 6 6 5 5 5 5 5 5 5 6 6 7 12 12
11 20 19 14 12 13 13 13 13 13 13 13 12 12 11 11 8 8 5 5 5 5 5 5 5 5 5 5 5 5 5 5 5 5 5 5 5 5 6 8 8 9 9
11 14 21 17 12 13 13 13 13 12 13 13 12 14 18 11 9 8 6 5 5 5 5 5 5 5 5 5 5 5 6 5 5 5 5 5 5 5 6 7 8 9 10
11 12 12 13 13 13 13 12 12 13 13 14 12 13 18 10 7 7 6 6 5 4 4 4 4 4 5 5 5 5 5 5 5 5 5 5 5 5 6 7 8 9 10
11 13 13 13 13 16 15 12 12 12 12 12 12 11 9 8 7 7 6 5 4 3 3 3 4 4 4 4 5 5 5 5 5 5 5 5 5 6 6 8 9 10 10
11 13 14 14 13 12 13 13 12 12 12 11 11 10 9 8 7 7 5 4 2 2 2 2 3 4 5 4 3 3 4 4 4 4 6 6 6 6 7 8 9 11 11
10 12 13 13 13 13 13 13 12 12 11 11 10 9 8 7 6 5 3 2 1 1 2 2 2 3 5 5 4 3 5 7 6 4 4 5 6 7 7 8 9 10 10
11 12 13 12 12 12 12 12 12 12 11 10 9 8 7 6 5 3 2 1 1 1 1 1 2 3 3 3 4 5 6 7 7 7 3 3 5 6 7 8 10 10 11
Wind_Direction
296 288 285 284 283 281 274 272 271 272 271 268 266 262 257 253 247 243 242 238 237 238 233 233 235 230 231 228 225 225 228 229 250 247 206 208 208 222 238 235 234 242 251
295 294 290 289 291 288 282 278 276 274 272 269 269 267 264 260 253 247 247 243 240 239 236 234 236 231 230 228 227 228 229 227 238 250 222 212 219 224 230 235 243 247 245
300 301 300 298 295 290 285 283 281 277 276 275 272 270 268 264 258 253 251 249 244 241 237 235 235 229 232 229 227 228 228 229 230 241 238 221 228 229 231 241 244 244 248
306 305 301 297 293 289 287 286 283 280 278 277 274 271 269 266 261 259 254 252 249 246 241 237 234 229 231 228 229 227 225 226 225 232 238 232 233 225 225 240 250 242 246
309 306 301 298 296 294 292 288 285 282 279 276 277 276 273 270 265 261 255 253 251 250 246 240 237 235 235 233 232 225 219 222 223 229 236 236 233 226 227 229 243 248 248
309 304 301 301 301 299 295 291 288 284 281 279 276 276 275 275 280 284 280 256 247 246 247 243 240 246 248 247 244 236 222 219 221 225 231 232 230 227 228 231 236 243 256
305 301 301 301 300 296 295 293 289 286 282 280 278 276 275 276 286 290 287 282 256 245 242 242 242 239 243 238 247 249 244 233 223 219 228 228 227 224 224 230 232 235 245
303 301 300 300 298 296 294 292 290 286 283 283 282 278 277 280 290 294 293 286 268 251 241 236 235 234 231 231 229 234 238 242 239 232 225 225 227 224 219 227 235 244 251
302 300 298 297 298 298 296 293 291 289 287 284 282 281 280 284 291 296 295 278 267 259 246 236 236 233 240 243 235 229 233 235 243 242 241 234 230 231 226 226 232 240 253
302 299 296 295 296 297 296 295 293 289 289 289 286 281 279 281 289 297 296 278 270 267 253 241 249 248 244 247 240 229 230 228 223 235 244 251 249 245 243 233 228 242 258
299 298 296 293 293 295 295 294 295 294 292 291 289 286 281 282 291 296 297 289 266 265 260 246 239 256 256 249 240 230 233 225 211 220 227 234 238 241 242 236 224 230 248
300 298 296 294 295 299 297 298 295 294 295 295 294 293 286 283 289 293 295 294 289 270 262 250 243 254 255 254 248 237 234 233 218 215 221 226 228 229 228 224 223 226 233
303 300 298 297 294 292 294 298 299 296 295 297 296 296 295 288 286 294 297 296 294 287 266 266 262 260 258 255 252 245 238 229 217 213 215 221 221 218 210 213 224 232 242
303 302 301 301 301 297 292 293 295 296 295 295 296 295 295 293 286 279 275 280 283 284 283 280 279 273 264 246 244 251 241 225 214 213 209 208 198 199 209 210 225 235 256
302 301 302 299 299 302 297 293 294 287 288 294 294 294 296 297 294 295 294 276 256 252 256 243 244 251 248 236 226 226 221 213 213 195 197 200 205 213 219 209 220 233 252
306 306 304 302 301 302 303 302 297 296 297 297 296 295 292 291 297 300 301 300 296 285 273 235 226 232 236 234 221 214 208 205 201 196 198 203 210 217 228 225 225 239 262
301 303 304 301 302 304 304 304 305 305 301 298 297 298 298 299 301 302 301 300 297 294 278 246 223 221 224 218 209 201 198 196 189 194 202 205 211 219 229 239 244 254 265
300 303 305 301 300 300 300 300 300 302 306 304 300 299 301 303 305 304 303 302 292 285 262 248 226 214 211 207 201 196 193 190 191 200 206 210 211 219 234 245 252 258 269
302 301 300 298 298 298 299 299 298 298 299 300 301 302 303 304 304 302 303 285 272 267 253 239 221 209 205 203 198 194 192 195 196 197 208 212 213 218 238 249 257 270 277
299 304 310 306 302 301 300 300 300 300 300 299 300 301 304 302 297 296 283 262 259 260 251 233 216 206 201 197 192 189 191 198 199 205 213 216 216 221 240 252 260 268 273
299 302 307 307 301 300 300 299 299 299 298 298 297 298 303 304 298 292 284 266 252 251 243 227 208 199 194 188 186 189 195 204 205 208 214 219 221 234 245 255 263 270 275
298 300 300 300 301 302 302 299 299 297 297 297 299 300 305 302 294 291 283 274 257 243 231 214 199 195 194 191 189 193 200 209 211 211 218 224 231 245 255 262 269 274 277
299 301 303 303 303 304 305 300 298 297 298 299 302 304 304 299 293 288 282 276 259 239 222 202 192 192 191 190 189 191 201 212 212 207 216 230 241 251 259 267 273 278 281
303 306 307 307 305 303 302 302 301 300 300 303 304 301 299 297 295 292 288 279 251 224 200 188 189 193 190 188 190 195 205 212 204 209 217 232 248 259 266 272 276 279 282
307 308 307 306 304 304 304 303 302 303 304 305 304 304 304 303 298 292 289 278 233 197 183 174 177 183 189 193 194 207 228 237 240 233 223 235 252 261 270 276 280 283 283
307 306 306 304 302 303 304 305 306 306 308 309 308 306 304 302 299 294 291 276 212 178 168 160 167 172 181 194 210 229 246 254 258 260 248 248 260 271 277 280 282 286 287
Height
1487 1483 1479 1476 1472 1468 1464 1460 1456 1452 1447 1443 1439 1434 1430 1427 1424 1420 1416 1414 1411 1409 1408 1407 1405 1408 1408 1408 1409 1410 1410 1411 1406 1404 1410 1414 1417 1420 1422 1423 1424 1424 1424
1482 1478 1474 1470 1466 1462 1458 1454 1449 1444 1440 1435 1430 1425 1421 1416 1413 1409 1405 1402 1399 1396 1396 1395 1394 1396 1395 1396 1397 1397 1397 1398 1397 1395 1398 1402 1405 1408 1410 1412 1413 1413 1413
1477 1473 1469 1465 1460 1456 1451 1446 1441 1436 1431 1426 1421 1415 1410 1406 1401 1397 1393 1389 1387 1384 1383 1382 1382 1383 1382 1383 1384 1384 1385 1386 1386 1386 1386 1391 1393 1397 1398 1399 1400 1401 1401
1471 1467 1463 1458 1454 1449 1444 1438 1433 1428 1422 1417 1411 1405 1400 1395 1390 1386 1381 1377 1374 1372 1371 1370 1369 1370 1369 1371 1371 1371 1373 1374 1375 1376 1377 1379 1382 1385 1387 1387 1388 1390 1390
1466 1461 1457 1452 1447 1441 1436 1430 1425 1419 1413 1407 1401 1395 1390 1384 1379 1374 1370 1365 1362 1359 1358 1357 1357 1357 1357 1358 1358 1358 1361 1362 1364 1365 1367 1369 1371 1374 1374 1377 1378 1379 1379
1460 1456 1450 1445 1439 1433 1427 1421 1415 1409 1403 1397 1391 1385 1379 1374 1370 1365 1360 1355 1351 1348 1346 1345 1346 1346 1346 1348 1348 1349 1349 1350 1352 1354 1355 1358 1359 1363 1366 1367 1369 1369 1369
1454 1449 1443 1437 1430 1424 1418 1411 1405 1399 1392 1386 1380 1375 1369 1364 1360 1355 1350 1346 1342 1338 1336 1335 1334 1334 1335 1335 1337 1339 1341 1341 1341 1343 1344 1346 1350 1353 1357 1358 1359 1359 1359
1447 1441 1435 1428 1421 1415 1408 1402 1395 1389 1383 1376 1370 1365 1359 1355 1350 1345 1341 1336 1332 1329 1327 1325 1324 1324 1325 1325 1325 1326 1328 1330 1334 1335 1335 1337 1342 1345 1347 1349 1351 1351 1350
1439 1432 1426 1420 1413 1406 1399 1393 1386 1380 1373 1367 1361 1356 1350 1345 1341 1336 1332 1326 1322 1320 1318 1317 1315 1314 1315 1316 1316 1315 1316 1318 1322 1326 1328 1331 1333 1336 1339 1341 1341 1342 1340
1431 1425 1419 1412 1406 1398 1391 1384 1378 1371 1364 1358 1352 1347 1342 1336 1332 1328 1324 1318 1314 1311 1309 1308 1307 1306 1306 1307 1307 1307 1307 1309 1312 1316 1319 1322 1325 1328 1331 1332 1333 1333 1332
1424 1417 1410 1404 1398 1390 1383 1376 1369 1362 1355 1349 1343 1338 1334 1329 1324 1320 1316 1312 1308 1304 1301 1300 1299 1299 1299 1299 1299 1299 1300 1303 1305 1308 1310 1313 1316 1318 1321 1323 1325 1325 1324
1415 1408 1401 1395 1389 1382 1374 1366 1360 1353 1346 1340 1334 1329 1325 1321 1317 1313 1309 1306 1302 1299 1295 1293 1292 1291 1291 1292 1292 1293 1295 1298 1299 1301 1303 1305 1308 1310 1313 1315 1316 1316 1315
1407 1399 1392 1386 1379 1373 1366 1358 1351 1345 1339 1332 1327 1321 1317 1313 1310 1306 1303 1299 1296 1293 1289 1287 1286 1285 1284 1285 1286 1287 1290 1292 1293 1295 1296 1298 1301 1304 1306 1307 1307 1307 1305
1398 1390 1383 1377 1369 1363 1357 1351 1344 1337 1332 1326 1321 1316 1311 1306 1303 1299 1295 1292 1289 1286 1283 1281 1280 1279 1278 1279 1280 1281 1283 1285 1287 1289 1291 1293 1296 1297 1298 1299 1299 1298 1296
1390 1382 1375 1369 1362 1354 1348 1343 1336 1330 1327 1321 1315 1311 1306 1300 1297 1294 1290 1286 1282 1279 1277 1274 1274 1273 1272 1273 1274 1276 1278 1280 1282 1284 1286 1288 1290 1291 1291 1292 1291 1290 1287
1382 1374 1367 1361 1354 1347 1339 1332 1328 1324 1318 1314 1310 1305 1300 1296 1291 1287 1283 1280 1277 1274 1272 1269 1268 1268 1268 1268 1269 1271 1273 1275 1278 1280 1281 1283 1284 1284 1284 1284 1284 1282 1279
1376 1368 1360 1354 1347 1340 1333 1326 1319 1314 1310 1306 1302 1298 1293 1289 1284 1280 1276 1273 1270 1268 1265 1263 1263 1263 1263 1264 1265 1267 1269 1271 1273 1275 1276 1277 1278 1278 1278 1277 1276 1274 1272
1368 1361 1354 1347 1340 1334 1328 1321 1315 1309 1302 1296 1293 1290 1286 1282 1278 1273 1270 1266 1263 1261 1259 1258 1258 1258 1259 1260 1261 1263 1265 1267 1269 1270 1271 1272 1272 1272 1271 1270 1269 1267 1264
1361 1354 1347 1340 1334 1328 1322 1316 1310 1304 1298 1292 1286 1282 1279 1275 1271 1267 1264 1260 1257 1255 1254 1253 1253 1253 1254 1256 1257 1259 1261 1263 1264 1265 1266 1266 1266 1266 1265 1264 1262 1260 1258
1353 1347 1341 1334 1327 1321 1315 1309 1304 1298 1293 1287 1282 1277 1273 1269 1264 1261 1258 1255 1252 1250 1249 1249 1249 1249 1251 1252 1254 1255 1257 1258 1260 1260 1261 1261 1261 1260 1259 1258 1256 1253 1250
1346 1339 1334 1328 1321 1315 1309 1303 1298 1293 1287 1282 1277 1273 1269 1264 1260 1256 1253 1250 1248 1246 1245 1245 1245 1246 1247 1249 1250 1252 1253 1254 1255 1256 1256 1256 1255 1254 1253 1252 1249 1247 1243
1339 1333 1327 1321 1315 1309 1303 1298 1293 1287 1282 1277 1271 1267 1263 1259 1255 1251 1248 1246 1244 1243 1242 1242 1242 1244 1245 1246 1248 1249 1250 1251 1251 1251 1251 1251 1250 1249 1247 1245 1243 1240 1236
1332 1327 1321 1315 1309 1303 1297 1292 1287 1282 1277 1272 1267 1262 1258 1254 1250 1247 1244 1242 1241 1240 1239 1239 1240 1241 1242 1244 1245 1246 1247 1247 1247 1247 1247 1246 1245 1243 1242 1239 1237 1233 1229
1327 1321 1315 1308 1303 1297 1291 1286 1281 1276 1272 1267 1262 1257 1253 1249 1246 1243 1241 1239 1238 1237 1237 1238 1238 1239 1240 1242 1243 1243 1244 1244 1244 1243 1242 1241 1240 1238 1236 1234 1230 1227 1223
1320 1314 1308 1302 1297 1291 1286 1281 1276 1271 1266 1262 1257 1252 1249 1245 1242 1239 1238 1236 1236 1235 1236 1236 1237 1238 1239 1240 1241 1241 1241 1241 1240 1240 1239 1237 1235 1233 1231 1228 1224 1220 1216
1313 1308 1302 1297 1291 1286 1281 1276 1271 1266 1261 1257 1252 1248 1245 1241 1239 1237 1236 1235 1234 1235 1235 1236 1236 1237 1238 1238 1239 1239 1238 1238 1237 1236 1235 1233 1231 1229 1226 1222 1219 1215 1210